Location: Goudex
(43.3760°N, 0.9543°E)
Time: 16:10:29
(UTC+00:00)

X-37B - Visible Passes

Search period start: 15 June 2021 00:00
Search period end: 25 June 2021 00:00
Orbit: 386 x 389 km, 45.0° (Epoch: 10 June)

Date Brightness Start Highest point End Pass type
(mag) Time Alt. Az. Time Alt. Az. Time Alt. Az.
15 Jun 0.4 02:04:19 51° WSW 02:05:01 87° S 02:08:13 10° ENE visible
16 Jun 2.3 01:08:14 26° E 01:08:14 26° E 01:09:49 10° ENE visible
16 Jun 1.0 02:40:29 12° W 02:43:21 62° N 02:46:31 10° E visible
17 Jun 0.7 01:44:24 54° WNW 01:44:56 72° NNW 01:48:07 10° ENE visible
17 Jun 0.9 03:18:34 10° WNW 03:21:44 71° N 03:24:54 10° E visible
18 Jun 2.5 00:48:20 24° ENE 00:48:20 24° ENE 00:49:45 10° ENE visible
18 Jun 1.0 02:20:36 13° WNW 02:23:19 62° N 02:26:29 10° E visible
19 Jun 1.0 01:24:37 59° NW 01:24:54 62° N 01:28:03 10° E visible
19 Jun 0.5 02:58:28 10° WNW 03:01:40 89° S 03:04:50 10° ESE visible
20 Jun 3.0 00:28:47 17° ENE 00:28:47 17° ENE 00:29:39 10° ENE visible
20 Jun 0.8 02:01:04 18° WNW 02:03:16 71° N 02:06:26 10° E visible
20 Jun 1.1 03:36:50 10° W 03:39:49 38° SSW 03:42:47 10° SE visible
21 Jun 1.5 01:05:32 47° ENE 01:05:32 47° ENE 01:08:01 10° E visible
21 Jun 0.5 02:38:23 10° WNW 02:41:32 61° SSW 02:44:40 10° ESE visible
22 Jun 0.4 01:43:03 81° W 01:43:11 89° SSW 01:46:22 10° ESE visible
22 Jun 1.8 03:16:59 10° W 03:19:34 23° SSW 03:22:09 10° SSE visible
22 Jun 1.0 21:28:29 10° SW 21:31:22 37° SSE 21:31:22 37° SSE visible
23 Jun 1.5 02:22:08 31° S 02:22:08 31° S 02:24:18 10° SE visible
23 Jun 1.8 20:30:40 10° SSW 20:33:15 23° SSE 20:35:50 10° E visible
23 Jun 0.4 22:06:27 10° WSW 22:09:37 89° S 22:10:09 59° ENE visible
24 Jun 0.5 21:08:09 10° WSW 21:11:17 61° SSE 21:14:26 10° ENE visible
24 Jun 1.3 22:44:48 10° W 22:47:29 53° NW 22:47:29 53° NW visible
